Topeka, KS

2:55 AM CDT on July 23, 2017 (GMT -0500)
Billard Municipal

Weather History for KTOP - March, 2014

Change the Weather History Date:

Monday, March 17, 2014

  Actual Average Record
Temperature  
Mean Temperature 40 °F 45 °F  
Max Temperature 58 °F 57 °F 82 °F (1994)
Min Temperature 22 °F 34 °F 8 °F (1906)
Degree Days  
Heating Degree Days 25 20  
Month to date heating degree days 445 385  
Since 1 July heating degree days 4767 4352  
Cooling Degree Days 0 0  
Month to date cooling degree days 0 0  
Year to date cooling degree days 0 0  
Moisture  
Dew Point 22 °F    
Average Humidity 50    
Maximum Humidity 74    
Minimum Humidity 25    
Precipitation  
Precipitation 0.00 in 0.08 in 2.38 in (1987)
Month to date precipitation 0.45 1.19  
Year to date precipitation 2.11 3.37  
Snow  
Snow 0.00 in 0.10 in 3.30 in (1958)
Month to date snowfall 2.4 1.1  
Year to date snowfall 21.3 10.5  
Since 1 July snowfall 25.6 17.0  
Snow Depth 0.00 in    
Sea Level Pressure  
Sea Level Pressure 29.82 in    
Wind  
Wind Speed 10 mph (SSE)    
Max Wind Speed 21 mph    
Max Gust Speed 28 mph    
Visibility 10 miles    
Events      
T = Trace of Precipitation, MM = Missing Value Source: NWS Daily Summary

Daily Weather History Graph

Daily Weather History Graph

Search for Another Location

Airport or City:

Trip Planner

Search our weather history database for the weather conditions in past years. The results will help you decide how hot, cold, wet, or windy it might be!

Date:

Astronomy

Mar. 17, 2014 Rise Set
Actual Time 7:30 AM CDT 7:31 PM CDT
Civil Twilight 7:04 AM CDT 7:58 PM CDT
Nautical Twilight 6:32 AM CDT 8:29 PM CDT
Astronomical Twilight 6:01 AM CDT 9:00 PM CDT
Moon 8:48 PM CDT (3/17) 7:47 AM CDT (3/17)
Length of Visible Light 12h 54m
Length of Day
12h 00m
Full, 99% of the Moon is Illuminated
Mar 17
Full
Mar 23
Last Quarter
Mar 30
New
Apr 7
First Quarter
Apr 15
Full

Hourly Weather History & Observations

Time (CDT) Temp. Windchill Dew Point Humidity Pressure Visibility Wind Dir Wind Speed Gust Speed Precip Events Conditions
12:53 AM 28.9 °F 23.9 °F 19.0 °F 67% 30.12 in 10.0 mi SE 4.6 mph - N/A   Clear
1:53 AM 27.0 °F - 18.0 °F 69% 30.10 in 10.0 mi Calm Calm - N/A   Clear
2:53 AM 27.0 °F - 17.1 °F 66% 30.07 in 10.0 mi Calm Calm - N/A   Clear
3:53 AM 26.1 °F - 17.1 °F 69% 30.05 in 10.0 mi Calm Calm - N/A   Clear
4:53 AM 23.0 °F 17.0 °F 16.0 °F 74% 30.01 in 10.0 mi SSE 4.6 mph - N/A   Clear
5:53 AM 25.0 °F 18.1 °F 17.1 °F 72% 29.98 in 10.0 mi South 5.8 mph - N/A   Clear
6:53 AM 23.0 °F 17.0 °F 16.0 °F 74% 29.99 in 10.0 mi SE 4.6 mph - N/A   Clear
7:53 AM 24.1 °F - 17.1 °F 75% 29.97 in 10.0 mi Calm Calm - N/A   Clear
8:53 AM 28.0 °F 19.3 °F 19.0 °F 69% 29.94 in 10.0 mi South 9.2 mph - N/A   Unknown
9:53 AM 33.1 °F 24.9 °F 19.9 °F 59% 29.92 in 10.0 mi South 10.4 mph - N/A   Clear
10:53 AM 39.0 °F 31.8 °F 21.0 °F 49% 29.88 in 10.0 mi SSE 11.5 mph - N/A   Clear
11:53 AM 44.1 °F 38.6 °F 21.0 °F 40% 29.83 in 10.0 mi South 10.4 mph - N/A   Clear
12:53 PM 50.0 °F - 21.9 °F 33% 29.78 in 10.0 mi SSE 16.1 mph - N/A   Clear
1:53 PM 53.1 °F - 23.0 °F 31% 29.74 in 10.0 mi South 13.8 mph - N/A   Clear
2:53 PM 54.0 °F - 23.0 °F 30% 29.68 in 10.0 mi South 13.8 mph 19.6 mph N/A   Clear
3:53 PM 57.0 °F - 24.1 °F 28% 29.65 in 10.0 mi SSE 16.1 mph 20.7 mph N/A   Clear
4:53 PM 57.0 °F - 23.0 °F 27% 29.63 in 10.0 mi South 16.1 mph 23.0 mph N/A   Clear
5:53 PM 57.0 °F - 25.0 °F 29% 29.60 in 10.0 mi SSE 18.4 mph 27.6 mph N/A   Clear
6:53 PM 52.0 °F - 26.1 °F 37% 29.62 in 10.0 mi SSE 15.0 mph - N/A   Clear
7:53 PM 50.0 °F - 27.0 °F 41% 29.61 in 10.0 mi SSE 13.8 mph 24.2 mph N/A   Clear
8:53 PM 46.9 °F - 28.0 °F 48% 29.60 in 10.0 mi SSE 13.8 mph - N/A   Clear
9:53 PM 46.0 °F 39.9 °F 28.9 °F 51% 29.59 in 10.0 mi SSE 13.8 mph 19.6 mph N/A   Clear
10:53 PM 46.0 °F 40.2 °F 27.0 °F 47% 29.58 in 10.0 mi SSE 12.7 mph 21.9 mph N/A   Clear
11:53 PM 46.9 °F - 25.0 °F 42% 29.57 in 10.0 mi South 13.8 mph - N/A   Clear